sat.trackr.live / text

‹ back to catalog

ONEWEB-0164

NORAD 48063 · 2021-025X

PAYLOAD ACTIVE UNKNOWN

§ Identity

Operator
Country
UK
Launch date
2021-03-25
Launch site
VOSTO
Launch vehicle
Mass (kg)
RCS (m²)

Purposes: comms

External: N2YO · Heavens-Above · Gunter

§ Orbital elements

Epoch: 2026-09-13T01:57:01.996704Z

Period
109.63 min
Inclination
87.8932°
Eccentricity
0.0002005
Mean motion
13.13469722 rev/d
Perigee alt
1,208.2 km
Apogee alt
1,211.3 km
Semi-major
7,587.9 km
B*
-6.4053e-4
RAAN
302.7404°
Arg perigee
94.2341°
Mean anomaly
265.9017°
Rev number
26,512

§ Raw data

ONEWEB-01641 48063U 21025X   26256.08127311 -.00000221  00000+0 -64053-3 0  99922 48063  87.8932 302.7404 0002005  94.2341 265.9017 13.13469722265124

JSON: /api/v1/satellites/48063 · /tle

For live sub-satellite position, see the globe view (requires WebGL).

§ Visibility from observer

Set your observer location to see the next 7 days of passes ≥ 10°. The values pass through the URL so the page stays shareable.

No JS? Fill the form by hand. The geolocation button needs JavaScript.